Location: Great Snoring
(52.8667°N, 0.8833°E)
Time: 18:10:21
(UTC+00:00)

Cosmos 2322 Rocket - Pass Details

Date: 19 May 2025
Orbit: 832 x 849 km, 71.0° (Epoch: 23 June)

Event Time Altitude Azimuth Distance (km) Brightness Sun altitude
Rises 21:03:27 0° 325° (NW) 3,421 7.8 -8.4°
Reaches altitude 10° 21:06:36 10° 342° (NNW) 2,481 5.9 -8.7°
Maximum altitude 21:10:45 20° 30° (NNE) 1,853 4.3 -9.1°
Drops below altitude 10° 21:14:53 10° 77° (ENE) 2,466 4.4 -9.5°
Sets 21:17:59 0° 94° (E) 3,394 5.0 -9.8°
